| time (UTC) | temp C | wind direction | speed KPH | gust KPH | rain 1hr cm | rain 24hr cm | rain mn cm | humidity % | barometer mb |
| 20260906093549 | 15 | 83 | 1.6 | 12.9 | 0.00 | 0.00 | 0.00 | 82 | 1020.1 |
| 20260906093048 | 15 | 101 | 1.6 | 12.9 | 0.00 | 0.00 | 0.00 | 82 | 1020.1 |
| 20260906092549 | 15 | 98 | 3.2 | 12.9 | 0.00 | 0.00 | 0.00 | 82 | 1020.0 |
| 20260906092047 | 15 | 92 | 1.6 | 6.4 | 0.00 | 0.00 | 0.00 | 81 | 1020.0 |
| 20260906091547 | 15 | 93 | 1.6 | 6.4 | 0.00 | 0.00 | 0.00 | 81 | 1019.9 |
| 20260906091045 | 15 | 78 | 0.0 | 4.8 | 0.00 | 0.00 | 0.00 | 80 | 1019.8 |
| 20260906090544 | 16 | 98 | 1.6 | 14.5 | 0.00 | 0.00 | 0.00 | 80 | 1019.7 |
| 20260906090045 | 15 | 74 | 4.8 | 14.5 | 0.00 | 0.00 | 0.00 | 79 | 1019.7 |
| 20260906085542 | 15 | 98 | 3.2 | 9.7 | 0.00 | 0.00 | 0.00 | 79 | 1019.5 |
| 20260906085042 | 15 | 88 | 1.6 | 9.7 | 0.00 | 0.00 | 0.00 | 78 | 1019.5 |
| 20260906084542 | 15 | 89 | 1.6 | 6.4 | 0.00 | 0.00 | 0.00 | 77 | 1019.4 |
| 20260906084041 | 15 | 111 | 1.6 | 6.4 | 0.00 | 0.00 | 0.00 | 76 | 1019.3 |
| 20260906083539 | 16 | 85 | 1.6 | 6.4 | 0.00 | 0.00 | 0.00 | 75 | 1019.2 |
| 20260906083042 | 16 | 78 | 1.6 | 6.4 | 0.00 | 0.00 | 0.00 | 75 | 1019.1 |
| 20260906082537 | 16 | 103 | 0.0 | 6.4 | 0.00 | 0.00 | 0.00 | 74 | 1019.0 |
| 20260906082040 | 16 | 78 | 1.6 | 4.8 | 0.00 | 0.00 | 0.00 | 74 | 1019.0 |
| 20260906081535 | 16 | 81 | 1.6 | 4.8 | 0.00 | 0.00 | 0.00 | 73 | 1018.8 |
| 20260906081034 | 16 | 99 | 1.6 | 9.7 | 0.00 | 0.00 | 0.00 | 73 | 1018.8 |
| 20260906080533 | 16 | 100 | 3.2 | 9.7 | 0.00 | 0.00 | 0.00 | 72 | 1018.6 |
| 20260906080034 | 16 | 101 | 0.0 | 6.4 | 0.00 | 0.00 | 0.00 | 72 | 1018.6 |
| 20260906075531 | 16 | 82 | 1.6 | 6.4 | 0.00 | 0.00 | 0.00 | 71 | 1018.5 |
| 20260906075031 | 16 | 82 | 1.6 | 6.4 | 0.00 | 0.00 | 0.00 | 71 | 1018.3 |
| 20260906074530 | 16 | 81 | 1.6 | 14.5 | 0.00 | 0.00 | 0.00 | 70 | 1018.3 |
| 20260906074033 | 17 | 101 | 3.2 | 14.5 | 0.00 | 0.00 | 0.00 | 69 | 1018.2 |
| 20260906073529 | 17 | 111 | 3.2 | 14.5 | 0.00 | 0.00 | 0.00 | 69 | 1018.2 |
| 20260906073031 | 17 | 96 | 3.2 | 9.7 | 0.00 | 0.00 | 0.00 | 68 | 1018.1 |
| 20260906072527 | 17 | 78 | 3.2 | 12.9 | 0.00 | 0.00 | 0.00 | 67 | 1018.1 |
| 20260906072027 | 17 | 101 | 3.2 | 16.1 | 0.00 | 0.00 | 0.00 | 66 | 1017.9 |
| 20260906071525 | 17 | 101 | 4.8 | 16.1 | 0.00 | 0.00 | 0.00 | 64 | 1017.9 |
| 20260906071027 | 17 | 63 | 3.2 | 12.9 | 0.00 | 0.00 | 0.00 | 64 | 1017.7 |
| 20260906070523 | 17 | 88 | 1.6 | 14.5 | 0.00 | 0.00 | 0.00 | 63 | 1017.7 |
| 20260906070023 | 18 | 40 | 3.2 | 14.5 | 0.00 | 0.00 | 0.00 | 62 | 1017.6 |
| 20260906065524 | 18 | 101 | 4.8 | 16.1 | 0.00 | 0.00 | 0.00 | 62 | 1017.4 |
| 20260906065022 | 18 | 80 | 4.8 | 16.1 | 0.00 | 0.00 | 0.00 | 62 | 1017.3 |
| 20260906064521 | 18 | 76 | 3.2 | 17.7 | 0.00 | 0.00 | 0.00 | 63 | 1017.2 |
| 20260906064026 | 18 | 182 | 6.4 | 17.7 | 0.00 | 0.00 | 0.00 | 63 | 1017.2 |
| 20260906063523 | 18 | 100 | 4.8 | 14.5 | 0.00 | 0.00 | 0.00 | 62 | 1017.2 |
| 20260906063019 | 18 | 89 | 3.2 | 19.3 | 0.00 | 0.00 | 0.00 | 60 | 1017.0 |
| 20260906062518 | 18 | 100 | 4.8 | 19.3 | 0.00 | 0.00 | 0.00 | 59 | 1017.0 |
| 20260906062018 | 18 | 82 | 4.8 | 19.3 | 0.00 | 0.00 | 0.00 | 59 | 1017.0 |
| 20260906061517 | 18 | 80 | 6.4 | 19.3 | 0.00 | 0.00 | 0.00 | 57 | 1016.9 |
| 20260906061016 | 18 | 77 | 4.8 | 17.7 | 0.00 | 0.00 | 0.00 | 57 | 1016.9 |
| 20260906060517 | 19 | 90 | 3.2 | 16.1 | 0.00 | 0.00 | 0.00 | 56 | 1016.8 |
| 20260906060025 | 19 | 84 | 4.8 | 14.5 | 0.00 | 0.00 | 0.00 | 56 | 1016.8 |
| 20260906055516 | 19 | 72 | 6.4 | 14.5 | 0.00 | 0.00 | 0.00 | 56 | 1016.8 |
| 20260906055015 | 19 | 67 | 3.2 | 11.3 | 0.00 | 0.00 | 0.00 | 54 | 1016.7 |
| 20260906054528 | 19 | 117 | 3.2 | 16.1 | 0.00 | 0.00 | 0.00 | 57 | 1016.7 |
| 20260906054015 | 19 | 108 | 4.8 | 17.7 | 0.00 | 0.00 | 0.00 | 55 | 1016.7 |
| 20260906053613 | 19 | 86 | 3.2 | 17.7 | 0.00 | 0.00 | 0.00 | 55 | 1016.7 |
| 20260906053014 | 19 | 90 | 4.8 | 24.1 | 0.00 | 0.00 | 0.00 | 54 | 1016.6 |
| 20260906052514 | 19 | 360 | 6.4 | 24.1 | 0.00 | 0.00 | 0.00 | 54 | 1016.5 |
| 20260906052016 | 19 | 88 | 6.4 | 20.9 | 0.00 | 0.00 | 0.00 | 55 | 1016.6 |
| 20260906051513 | 19 | 111 | 6.4 | 20.9 | 0.00 | 0.00 | 0.00 | 53 | 1016.5 |
| 20260906051012 | 19 | 84 | 8.0 | 20.9 | 0.00 | 0.00 | 0.00 | 52 | 1016.5 |
| 20260906050512 | 19 | 163 | 8.0 | 16.1 | 0.00 | 0.00 | 0.00 | 54 | 1016.5 |
| 20260906050011 | 19 | 129 | 3.2 | 16.1 | 0.00 | 0.00 | 0.00 | 56 | 1016.5 |
| 20260906045511 | 19 | 78 | 6.4 | 24.1 | 0.00 | 0.00 | 0.00 | 55 | 1016.4 |
| 20260906045012 | 19 | 36 | 6.4 | 29.0 | 0.00 | 0.00 | 0.00 | 53 | 1016.2 |
| 20260906044512 | 20 | 85 | 8.0 | 24.1 | 0.00 | 0.00 | 0.00 | 53 | 1016.1 |
| 20260906044011 | 20 | 98 | 3.2 | 24.1 | 0.00 | 0.00 | 0.00 | 53 | 1016.2 |
| 20260906043510 | 20 | 78 | 8.0 | 27.4 | 0.00 | 0.00 | 0.00 | 50 | 1016.1 |
| 20260906043015 | 20 | 94 | 3.2 | 27.4 | 0.00 | 0.00 | 0.00 | 51 | 1016.1 |
| 20260906042509 | 20 | 73 | 6.4 | 22.5 | 0.00 | 0.00 | 0.00 | 52 | 1016.0 |
| 20260906042010 | 20 | 83 | 9.7 | 22.5 | 0.00 | 0.00 | 0.00 | 50 | 1016.1 |
| 20260906041509 | 20 | 65 | 6.4 | 17.7 | 0.00 | 0.00 | 0.00 | 49 | 1016.1 |
| 20260906041009 | 20 | 86 | 6.4 | 20.9 | 0.00 | 0.00 | 0.00 | 49 | 1016.0 |
| 20260906040509 | 20 | 94 | 6.4 | 20.9 | 0.00 | 0.00 | 0.00 | 48 | 1016.0 |
| 20260906040020 | 20 | 85 | 6.4 | 19.3 | 0.00 | 0.00 | 0.00 | 48 | 1016.0 |
| 20260906035508 | 20 | 76 | 8.0 | 19.3 | 0.00 | 0.00 | 0.00 | 47 | 1016.0 |
| 20260906035011 | 20 | 78 | 3.2 | 17.7 | 0.00 | 0.00 | 0.00 | 47 | 1016.0 |
| 20260906034514 | 20 | 70 | 6.4 | 22.5 | 0.00 | 0.00 | 0.00 | 47 | 1015.9 |
| 20260906034008 | 21 | 91 | 8.0 | 22.5 | 0.00 | 0.00 | 0.00 | 45 | 1015.9 |
| 20260906033508 | 21 | 100 | 8.0 | 19.3 | 0.00 | 0.00 | 0.00 | 45 | 1015.9 |
| 20260906033028 | 21 | 64 | 8.0 | 14.5 | 0.00 | 0.00 | 0.00 | 46 | 1015.9 |
| 20260906032508 | 21 | 113 | 3.2 | 17.7 | 0.00 | 0.00 | 0.00 | 46 | 1015.8 |
| 20260906032008 | 21 | 59 | 4.8 | 17.7 | 0.00 | 0.00 | 0.00 | 45 | 1015.8 |
| 20260906031509 | 21 | 51 | 3.2 | 16.1 | 0.00 | 0.00 | 0.00 | 45 | 1015.8 |
| 20260906031007 | 21 | 136 | 4.8 | 16.1 | 0.00 | 0.00 | 0.00 | 45 | 1015.6 |
| 20260906030507 | 21 | 64 | 4.8 | 14.5 | 0.00 | 0.00 | 0.00 | 44 | 1015.8 |
| 20260906030007 | 21 | 51 | 4.8 | 20.9 | 0.00 | 0.00 | 0.00 | 45 | 1015.7 |
| 20260906025506 | 21 | 115 | 4.8 | 20.9 | 0.00 | 0.00 | 0.00 | 42 | 1015.7 |
| 20260906025006 | 21 | 80 | 4.8 | 12.9 | 0.00 | 0.00 | 0.00 | 42 | 1015.7 |
| 20260906024506 | 21 | 92 | 3.2 | 14.5 | 0.00 | 0.00 | 0.00 | 40 | 1015.8 |
| 20260906024005 | 21 | 77 | 6.4 | 22.5 | 0.00 | 0.00 | 0.00 | 40 | 1015.9 |
| 20260906023505 | 21 | 95 | 6.4 | 22.5 | 0.00 | 0.00 | 0.00 | 42 | 1015.8 |
| 20260906023004 | 21 | 94 | 4.8 | 16.1 | 0.00 | 0.00 | 0.00 | 39 | 1015.9 |
| 20260906022504 | 22 | 23 | 4.8 | 14.5 | 0.00 | 0.00 | 0.00 | 41 | 1015.9 |
| 20260906022004 | 21 | 230 | 1.6 | 16.1 | 0.00 | 0.00 | 0.00 | 42 | 1015.8 |
| 20260906021504 | 21 | 86 | 4.8 | 16.1 | 0.00 | 0.00 | 0.00 | 42 | 1015.9 |
| 20260906021003 | 21 | 67 | 3.2 | 12.9 | 0.00 | 0.00 | 0.00 | 42 | 1015.9 |
| 20260906020502 | 21 | 130 | 1.6 | 14.5 | 0.00 | 0.00 | 0.00 | 42 | 1016.0 |
| 20260906020000 | 21 | 209 | 6.4 | 20.9 | 0.00 | 0.00 | 0.00 | 41 | 1016.0 |
| 20260906015600 | 21 | 186 | 9.7 | 20.9 | 0.00 | 0.00 | 0.00 | 41 | 1016.2 |
| 20260906015103 | 21 | 194 | 8.0 | 19.3 | 0.00 | 0.00 | 0.00 | 41 | 1016.2 |
| 20260906014600 | 21 | 113 | 3.2 | 16.1 | 0.00 | 0.00 | 0.00 | 42 | 1016.0 |
| 20260906014059 | 20 | 149 | 6.4 | 17.7 | 0.00 | 0.00 | 0.00 | 42 | 1016.1 |
| 20260906013602 | 20 | 142 | 6.4 | 22.5 | 0.00 | 0.00 | 0.00 | 41 | 1016.0 |
| 20260906013104 | 20 | 147 | 6.4 | 20.9 | 0.00 | 0.00 | 0.00 | 41 | 1016.3 |
| 20260906012557 | 20 | 149 | 4.8 | 16.1 | 0.00 | 0.00 | 0.00 | 41 | 1016.3 |
| 20260906012057 | 20 | 132 | 8.0 | 17.7 | 0.00 | 0.00 | 0.00 | 41 | 1016.2 |
| 20260906011557 | 20 | 169 | 4.8 | 20.9 | 0.00 | 0.00 | 0.00 | 41 | 1016.2 |
| 20260906011055 | 20 | 179 | 8.0 | 19.3 | 0.00 | 0.00 | 0.00 | 42 | 1016.2 |
| 20260906010555 | 20 | 92 | 6.4 | 16.1 | 0.00 | 0.00 | 0.00 | 42 | 1016.1 |
| 20260906010054 | 20 | 146 | 4.8 | 24.1 | 0.00 | 0.00 | 0.00 | 43 | 1016.1 |
| 20260906005554 | 20 | 192 | 11.3 | 24.1 | 0.00 | 0.00 | 0.00 | 42 | 1016.1 |
| 20260906005054 | 20 | 210 | 4.8 | 14.5 | 0.00 | 0.00 | 0.00 | 43 | 1016.1 |
| 20260906004554 | 20 | 211 | 4.8 | 19.3 | 0.00 | 0.00 | 0.00 | 43 | 1016.0 |
| 20260906004053 | 20 | 221 | 3.2 | 19.3 | 0.00 | 0.00 | 0.00 | 44 | 1016.0 |
| 20260906003553 | 20 | 261 | 6.4 | 14.5 | 0.00 | 0.00 | 0.00 | 44 | 1015.9 |
| 20260906003054 | 20 | 257 | 6.4 | 22.5 | 0.00 | 0.00 | 0.00 | 44 | 1016.1 |
| 20260906002556 | 20 | 269 | 6.4 | 22.5 | 0.00 | 0.00 | 0.00 | 46 | 1016.0 |
| 20260906002052 | 19 | 225 | 6.4 | 16.1 | 0.00 | 0.00 | 0.00 | 45 | 1015.8 |
| 20260906001551 | 19 | 207 | 6.4 | 16.1 | 0.00 | 0.00 | 0.00 | 44 | 1015.9 |
| 20260906001051 | 19 | 219 | 6.4 | 16.1 | 0.00 | 0.00 | 0.00 | 44 | 1016.0 |
| 20260906000553 | 19 | 241 | 6.4 | 20.9 | 0.00 | 0.00 | 0.00 | 46 | 1015.9 |
| 20260906000051 | 19 | 259 | 6.4 | 16.1 | 0.00 | 0.00 | 0.00 | 46 | 1015.8 |
| 20260905235550 | 18 | 242 | 4.8 | 16.1 | 0.00 | 0.00 | 0.00 | 45 | 1015.9 |
| 20260905235050 | 18 | 243 | 4.8 | 20.9 | 0.00 | 0.00 | 0.00 | 46 | 1015.7 |
| 20260905234550 | 18 | 238 | 6.4 | 19.3 | 0.00 | 0.00 | 0.00 | 45 | 1015.8 |
| 20260905234050 | 18 | 216 | 6.4 | 12.9 | 0.00 | 0.00 | 0.00 | 47 | 1015.8 |
| 20260905233549 | 18 | 211 | 8.0 | 16.1 | 0.00 | 0.00 | 0.00 | 46 | 1015.7 |
| 20260905233057 | 18 | 229 | 6.4 | 27.4 | 0.00 | 0.00 | 0.00 | 46 | 1015.7 |
| 20260905232548 | 18 | 186 | 11.3 | 25.7 | 0.00 | 0.00 | 0.00 | 45 | 1016.0 |
| 20260905232048 | 18 | 247 | 3.2 | 19.3 | 0.00 | 0.00 | 0.00 | 49 | 1015.8 |
| 20260905231547 | 18 | 240 | 6.4 | 19.3 | 0.00 | 0.00 | 0.00 | 47 | 1015.6 |
| 20260905231046 | 18 | 332 | 4.8 | 17.7 | 0.00 | 0.00 | 0.00 | 49 | 1015.6 |
| 20260905230546 | 17 | 248 | 8.0 | 24.1 | 0.00 | 0.00 | 0.00 | 48 | 1015.5 |
| 20260905230046 | 17 | 270 | 9.7 | 24.1 | 0.00 | 0.00 | 0.00 | 47 | 1015.5 |
| 20260905225545 | 17 | 250 | 11.3 | 22.5 | 0.00 | 0.00 | 0.00 | 48 | 1015.4 |
| 20260905225045 | 17 | 235 | 6.4 | 16.1 | 0.00 | 0.00 | 0.00 | 49 | 1015.4 |
| 20260905224609 | 17 | 221 | 4.8 | 19.3 | 0.00 | 0.00 | 0.00 | 50 | 1015.4 |
| 20260905224043 | 17 | 221 | 9.7 | 20.9 | 0.00 | 0.00 | 0.00 | 50 | 1015.3 |
| 20260905223544 | 17 | 245 | 8.0 | 20.9 | 0.00 | 0.00 | 0.00 | 51 | 1015.3 |
| 20260905223046 | 17 | 259 | 8.0 | 19.3 | 0.00 | 0.00 | 0.00 | 50 | 1015.3 |
| 20260905222545 | 17 | 276 | 8.0 | 19.3 | 0.00 | 0.00 | 0.00 | 49 | 1015.2 |
| 20260905222046 | 17 | 212 | 6.4 | 22.5 | 0.00 | 0.00 | 0.00 | 51 | 1015.2 |
| 20260905221542 | 17 | 261 | 12.9 | 22.5 | 0.00 | 0.00 | 0.00 | 49 | 1015.1 |
| 20260905221041 | 17 | 231 | 11.3 | 20.9 | 0.00 | 0.00 | 0.00 | 49 | 1015.1 |
| 20260905220541 | 17 | 241 | 6.4 | 20.9 | 0.00 | 0.00 | 0.00 | 50 | 1015.0 |
| 20260905220041 | 17 | 225 | 11.3 | 22.5 | 0.00 | 0.00 | 0.00 | 50 | 1014.9 |
| 20260905215541 | 16 | 252 | 11.3 | 24.1 | 0.00 | 0.00 | 0.00 | 50 | 1014.9 |
| 20260905215039 | 16 | 254 | 11.3 | 24.1 | 0.00 | 0.00 | 0.00 | 50 | 1015.1 |
| 20260905214546 | 16 | 306 | 6.4 | 22.5 | 0.00 | 0.00 | 0.00 | 50 | 1014.8 |
| 20260905214038 | 16 | 251 | 8.0 | 25.7 | 0.00 | 0.00 | 0.00 | 50 | 1014.8 |
| 20260905213540 | 16 | 252 | 8.0 | 25.7 | 0.00 | 0.00 | 0.00 | 50 | 1014.5 |
| 20260905213038 | 16 | 259 | 8.0 | 24.1 | 0.00 | 0.00 | 0.00 | 50 | 1014.4 |
| 20260905212537 | 16 | 254 | 9.7 | 24.1 | 0.00 | 0.00 | 0.00 | 49 | 1014.4 |
| 20260905212039 | 16 | 244 | 8.0 | 17.7 | 0.00 | 0.00 | 0.00 | 49 | 1014.6 |
| 20260905211543 | 16 | 290 | 6.4 | 19.3 | 0.00 | 0.00 | 0.00 | 50 | 1014.6 |
| 20260905211034 | 16 | 239 | 8.0 | 19.3 | 0.00 | 0.00 | 0.00 | 49 | 1014.5 |
| 20260905210533 | 16 | 287 | 4.8 | 22.5 | 0.00 | 0.00 | 0.00 | 49 | 1014.4 |
| 20260905210041 | 16 | 259 | 9.7 | 22.5 | 0.00 | 0.00 | 0.00 | 48 | 1014.3 |
| 20260905205533 | 16 | 234 | 11.3 | 19.3 | 0.00 | 0.00 | 0.00 | 49 | 1014.0 |
| 20260905205033 | 16 | 237 | 8.0 | 20.9 | 0.00 | 0.00 | 0.00 | 49 | 1013.8 |
| 20260905204530 | 16 | 240 | 11.3 | 24.1 | 0.00 | 0.00 | 0.00 | 48 | 1013.7 |
| 20260905204029 | 16 | 279 | 9.7 | 17.7 | 0.00 | 0.00 | 0.00 | 49 | 1013.7 |
| 20260905203528 | 16 | 254 | 6.4 | 16.1 | 0.00 | 0.00 | 0.00 | 49 | 1013.9 |
| 20260905203027 | 16 | 244 | 4.8 | 16.1 | 0.00 | 0.00 | 0.00 | 49 | 1013.6 |
| 20260905202527 | 16 | 235 | 9.7 | 16.1 | 0.00 | 0.00 | 0.00 | 50 | 1013.4 |
| 20260905202025 | 16 | 261 | 8.0 | 16.1 | 0.00 | 0.00 | 0.00 | 50 | 1013.5 |
| 20260905201523 | 16 | 250 | 6.4 | 16.1 | 0.00 | 0.00 | 0.00 | 49 | 1013.5 |
| 20260905201021 | 17 | 235 | 8.0 | 17.7 | 0.00 | 0.00 | 0.00 | 47 | 1013.3 |
| 20260905200527 | 17 | 229 | 6.4 | 22.5 | 0.00 | 0.00 | 0.00 | 45 | 1013.1 |
| 20260905200026 | 17 | 240 | 9.7 | 24.1 | 0.00 | 0.00 | 0.00 | 44 | 1012.9 |
| 20260905195518 | 17 | 273 | 8.0 | 24.1 | 0.00 | 0.00 | 0.00 | 43 | 1012.9 |
| 20260905195018 | 17 | 227 | 8.0 | 27.4 | 0.00 | 0.00 | 0.00 | 43 | 1013.1 |
| 20260905194519 | 17 | 219 | 8.0 | 20.9 | 0.00 | 0.00 | 0.00 | 43 | 1013.1 |
| 20260905194016 | 17 | 261 | 11.3 | 24.1 | 0.00 | 0.00 | 0.00 | 43 | 1013.0 |
| 20260905193514 | 17 | 261 | 11.3 | 24.1 | 0.00 | 0.00 | 0.00 | 43 | 1012.7 |
| 20260905193014 | 17 | 253 | 8.0 | 27.4 | 0.00 | 0.00 | 0.00 | 44 | 1012.5 |
| 20260905192512 | 18 | 246 | 11.3 | 40.2 | 0.00 | 0.00 | 0.00 | 43 | 1012.4 |
| 20260905192011 | 17 | 281 | 12.9 | 27.4 | 0.00 | 0.00 | 0.00 | 47 | 1012.0 |
| 20260905191509 | 17 | 269 | 8.0 | 29.0 | 0.00 | 0.00 | 0.00 | 48 | 1011.7 |
| 20260905191008 | 18 | 256 | 11.3 | 29.0 | 0.00 | 0.00 | 0.00 | 47 | 1011.4 |
| 20260905190507 | 18 | 246 | 14.5 | 25.7 | 0.00 | 0.00 | 0.00 | 46 | 1011.2 |
| 20260905190006 | 18 | 298 | 11.3 | 29.0 | 0.00 | 0.00 | 0.00 | 45 | 1011.1 |
| 20260905185504 | 18 | 213 | 14.5 | 37.0 | 0.00 | 0.00 | 0.00 | 42 | 1011.2 |
| 20260905185003 | 18 | 273 | 16.1 | 37.0 | 0.00 | 0.00 | 0.00 | 42 | 1010.9 |
| 20260905184506 | 18 | 240 | 12.9 | 29.0 | 0.00 | 0.00 | 0.00 | 42 | 1011.0 |
| 20260905184002 | 18 | 233 | 12.9 | 27.4 | 0.00 | 0.00 | 0.00 | 44 | 1011.0 |
| 20260905183503 | 18 | 288 | 12.9 | 24.1 | 0.00 | 0.00 | 0.00 | 48 | 1010.8 |
| 20260905183101 | 18 | 257 | 9.7 | 17.7 | 0.00 | 0.00 | 0.00 | 51 | 1010.7 |
| 20260905182559 | 18 | 245 | 9.7 | 27.4 | 0.00 | 0.00 | 0.00 | 50 | 1010.7 |
| 20260905182058 | 18 | 284 | 11.3 | 27.4 | 0.00 | 0.00 | 0.00 | 49 | 1010.8 |
| 20260905181557 | 18 | 238 | 8.0 | 20.9 | 0.00 | 0.00 | 0.00 | 48 | 1010.9 |
| 20260905181055 | 19 | 201 | 8.0 | 20.9 | 0.00 | 0.00 | 0.00 | 48 | 1010.9 |
| 20260905180556 | 19 | 207 | 8.0 | 27.4 | 0.00 | 0.00 | 0.00 | 48 | 1011.1 |
| 20260905175552 | 20 | 317 | 6.4 | 16.1 | 0.00 | 0.00 | 0.00 | 48 | 1011.3 |
| 20260905175054 | 20 | 242 | 6.4 | 17.7 | 0.00 | 0.00 | 0.00 | 49 | 1011.1 |
| 20260905174549 | 20 | 249 | 4.8 | 16.1 | 0.00 | 0.00 | 0.00 | 49 | 1011.1 |
| 20260905174049 | 20 | 257 | 6.4 | 17.7 | 0.00 | 0.00 | 0.00 | 49 | 1011.1 |
| 20260905173548 | 20 | 242 | 4.8 | 29.0 | 0.00 | 0.00 | 0.00 | 49 | 1011.0 |
| 20260905173149 | 20 | 252 | 8.0 | 29.0 | 0.00 | 0.00 | 0.00 | 49 | 1010.8 |
| 20260905172545 | 20 | 204 | 11.3 | 27.4 | 0.00 | 0.00 | 0.00 | 50 | 1010.7 |
| 20260905172045 | 20 | 261 | 11.3 | 37.0 | 0.00 | 0.00 | 0.00 | 49 | 1010.5 |
| 20260905171545 | 20 | 245 | 16.1 | 41.8 | 0.00 | 0.00 | 0.00 | 49 | 1010.5 |
| 20260905171042 | 20 | 242 | 16.1 | 41.8 | 0.00 | 0.00 | 0.00 | 51 | 1010.5 |
| 20260905170541 | 20 | 243 | 8.0 | 17.7 | 0.00 | 0.00 | 0.00 | 55 | 1010.4 |
| 20260905170044 | 21 | 236 | 8.0 | 27.4 | 0.00 | 0.00 | 0.00 | 55 | 1010.4 |
| 20260905165539 | 21 | 234 | 12.9 | 27.4 | 0.00 | 0.00 | 0.00 | 54 | 1010.3 |
| 20260905165039 | 21 | 227 | 8.0 | 25.7 | 0.00 | 0.00 | 0.00 | 55 | 1010.2 |
| 20260905164537 | 21 | 189 | 9.7 | 25.7 | 0.00 | 0.00 | 0.00 | 56 | 1010.1 |
| 20260905164037 | 21 | 195 | 8.0 | 24.1 | 0.00 | 0.00 | 0.00 | 56 | 1010.1 |
| 20260905163538 | 21 | 187 | 4.8 | 17.7 | 0.00 | 0.00 | 0.00 | 57 | 1010.0 |
| 20260905163035 | 21 | 188 | 4.8 | 17.7 | 0.00 | 0.00 | 0.00 | 56 | 1010.0 |
| 20260905162534 | 21 | 245 | 8.0 | 22.5 | 0.00 | 0.00 | 0.00 | 56 | 1009.9 |
| 20260905162033 | 21 | 220 | 6.4 | 22.5 | 0.00 | 0.00 | 0.00 | 57 | 1009.9 |
| 20260905161534 | 21 | 236 | 8.0 | 20.9 | 0.00 | 0.00 | 0.00 | 56 | 1009.9 |
| 20260905161031 | 21 | 207 | 9.7 | 20.9 | 0.00 | 0.00 | 0.00 | 56 | 1009.8 |
| 20260905160530 | 21 | 227 | 9.7 | 17.7 | 0.00 | 0.00 | 0.00 | 57 | 1009.8 |
| 20260905160028 | 21 | 224 | 8.0 | 17.7 | 0.00 | 0.00 | 0.00 | 57 | 1009.6 |
| 20260905155530 | 21 | 251 | 8.0 | 19.3 | 0.00 | 0.00 | 0.00 | 56 | 1009.5 |
| 20260905155026 | 21 | 267 | 9.7 | 19.3 | 0.00 | 0.00 | 0.00 | 56 | 1009.4 |
| 20260905154526 | 21 | 227 | 6.4 | 20.9 | 0.00 | 0.00 | 0.00 | 56 | 1009.4 |
| 20260905154032 | 21 | 238 | 8.0 | 20.9 | 0.00 | 0.00 | 0.00 | 56 | 1009.4 |
| 20260905153525 | 21 | 207 | 6.4 | 19.3 | 0.00 | 0.00 | 0.00 | 56 | 1009.3 |
| 20260905153025 | 21 | 279 | 9.7 | 19.3 | 0.00 | 0.00 | 0.00 | 56 | 1009.2 |
| 20260905152525 | 21 | 288 | 6.4 | 19.3 | 0.00 | 0.00 | 0.00 | 56 | 1009.2 |
| 20260905152022 | 21 | 238 | 8.0 | 19.3 | 0.00 | 0.00 | 0.00 | 56 | 1009.2 |
| 20260905151522 | 21 | 277 | 9.7 | 17.7 | 0.00 | 0.00 | 0.00 | 56 | 1009.2 |
| 20260905151020 | 21 | 288 | 8.0 | 14.5 | 0.00 | 0.00 | 0.00 | 57 | 1009.3 |
| 20260905150523 | 21 | 244 | 8.0 | 22.5 | 0.00 | 0.00 | 0.00 | 56 | 1009.2 |
| 20260905150020 | 21 | 257 | 9.7 | 22.5 | 0.00 | 0.00 | 0.00 | 56 | 1009.3 |
| 20260905145519 | 21 | 281 | 12.9 | 24.1 | 0.00 | 0.00 | 0.00 | 56 | 1009.2 |
| 20260905145019 | 21 | 266 | 6.4 | 22.5 | 0.00 | 0.00 | 0.00 | 57 | 1009.2 |
| 20260905144523 | 21 | 237 | 8.0 | 22.5 | 0.00 | 0.00 | 0.00 | 57 | 1009.2 |
| 20260905144017 | 21 | 254 | 6.4 | 11.3 | 0.00 | 0.00 | 0.00 | 56 | 1009.1 |
| 20260905143516 | 22 | 231 | 3.2 | 14.5 | 0.00 | 0.00 | 0.00 | 55 | 1009.2 |
| 20260905143018 | 22 | 246 | 6.4 | 16.1 | 0.00 | 0.00 | 0.00 | 55 | 1009.1 |
| 20260905142515 | 22 | 241 | 8.0 | 16.1 | 0.00 | 0.00 | 0.00 | 55 | 1009.1 |
| 20260905142014 | 22 | 298 | 6.4 | 16.1 | 0.00 | 0.00 | 0.00 | 55 | 1008.9 |
| 20260905141512 | 22 | 271 | 4.8 | 12.9 | 0.00 | 0.00 | 0.00 | 56 | 1008.9 |
| 20260905141013 | 22 | 275 | 6.4 | 20.9 | 0.00 | 0.00 | 0.00 | 56 | 1008.7 |
| 20260905140513 | 21 | 290 | 11.3 | 20.9 | 0.00 | 0.00 | 0.00 | 56 | 1008.7 |
| 20260905140009 | 21 | 285 | 8.0 | 16.1 | 0.00 | 0.00 | 0.00 | 57 | 1008.6 |
| 20260905135509 | 21 | 279 | 8.0 | 16.1 | 0.00 | 0.00 | 0.00 | 58 | 1008.6 |